Weather

DAILY 7 DAY TOTAL
onrain

Note: Some stations are located near irrigated fields and may also report irrigation

Alliston Mount Forest Blyth Guelph Grand Bend Strathroy Woodstock Belmont Simcoe Leamington Chatham West Lorne






Chatham WIN - Historical Weather Data
Date Max Temp (°C) Min Temp (°C) Avg Temp (°C) Rain (mm) 7Day Rain(mm) Total Rain(mm) Avg RH (%)
10/21/2018 5.5 1.4 3.3 0.0 1.8 489.0 71.4
10/20/2018 12.7 2.3 8.3 0.8 1.8 489.0 89.7
10/19/2018 13.9 5.8 9.8 0.6 2.4 488.2 69.2
10/18/2018 9.2 -1.1 4.3 0.0 4.0 487.6 66.7
10/17/2018 9.8 4.2 7.8 0.0 4.0 487.6 61.5
10/16/2018 12.2 -0.9 6.7 0.0 4.0 487.6 67.8
10/15/2018 12.7 4.6 10.2 0.4 4.0 487.6 81.5
10/14/2018 14.0 3.7 8.9 0.0 3.6 487.2 83.6
10/13/2018 11.0 4.7 6.9 1.4 3.6 487.2 82.3
10/12/2018 9.2 5.1 7.5 2.2 50.0 485.8 72.5
10/11/2018 21.4 9.2 15.1 0.0 47.8 483.6 78.4
10/10/2018 26.3 20.1 22.8 0.0 48.8 483.6 86.2
10/9/2018 28.8 20.9 24.1 0.0 48.8 483.6 85.7
10/8/2018 26.3 14.9 20.2 0.0 62.8 483.6 95.7
10/7/2018 17.3 13.8 15.1 0.0 89.4 483.6 98.2
10/6/2018 26.2 16.6 19.6 47.8 92.2 483.6 98.6
10/5/2018 16.9 4.2 11.3 0.0 44.6 435.8 93.6
10/4/2018 23.5 6.8 17.1 1.0 45.8 435.8 84.6
10/3/2018 24.1 12.2 18.0 0.0 44.8 434.8 92.6
10/2/2018 22.7 13.4 18.1 14.0 44.8 434.8 96.6
10/1/2018 16.2 11.9 13.4 26.6 30.8 420.8 100.0
9/30/2018 19.5 9.1 13.0 2.8 4.2 394.2 93.7
9/29/2018 16.0 7.8 12.0 0.2 1.4 391.4 73.1
9/28/2018 22.2 8.5 14.7 1.2 1.2 391.2 81.1
9/27/2018 18.4 6.1 12.5 0.0 0.0 390.0 87.4
9/26/2018 22.5 11.3 18.3 0.0 0.0 390.0 81.3
9/25/2018 23.1 18.7 21.0 0.0 0.0 390.0 99.8
9/24/2018 20.2 11.1 16.5 0.0 0.0 390.0 96.2
9/23/2018 20.9 7.1 13.6 0.0 0.0 390.0 82.3
9/22/2018 17.3 8.5 13.1 0.0 0.0 390.0 79.3
9/21/2018 30.5 17.6 25.1 0.0 0.0 390.0 75.4
9/20/2018 24.2 13.4 18.8 0.0 0.0 390.0 99.0
9/19/2018 24.4 15.3 18.9 0.0 0.0 390.0 83.3
9/18/2018 29.3 16.2 21.3 0.0 0.0 390.0 88.5
9/17/2018 28.0 17.5 22.0 0.0 0.0 390.0 91.3
9/16/2018 28.9 16.8 22.7 0.0 8.6 390.0 87.4
9/15/2018 29.5 17.4 22.8 0.0 10.8 390.0 90.3
9/14/2018 27.5 16.9 21.6 0.0 10.8 390.0 95.8
9/13/2018 24.2 13.7 19.8 0.0 10.8 390.0 97.4
9/12/2018 22.6 11.6 17.1 0.0 11.0 390.0 91.3
9/11/2018 23.1 13.1 17.1 0.0 11.0 390.0 90.9
9/10/2018 18.8 12.3 15.8 8.6 11.0 390.0 100.0
9/9/2018 16.9 12.6 14.1 2.2 4.4 381.4 79.6
9/8/2018 18.7 12.7 16.4 0.0 2.2 379.2 74.9
9/7/2018 23.6 15.7 18.4 0.0 2.6 379.2 81.8
9/6/2018 24.6 17.2 21.2 0.2 2.6 379.2 91.8
9/5/2018 32.6 22.5 27.5 0.0 2.4 379.0 81.2
9/4/2018 31.5 20.4 25.4 0.0 2.4 379.0 90.3
9/3/2018 32.8 22.1 25.5 2.0 2.4 379.0 89.5
9/2/2018 30.7 22.6 26.1 0.0 0.4 377.0 86.8
9/1/2018 29.0 16.2 23.3 0.4 0.4 377.0 90.7
8/31/2018 25.6 13.5 19.3 0.0 6.2 376.6 85.4
8/30/2018 23.8 14.8 19.5 0.0 6.2 376.6 84.8
8/29/2018 28.1 21.5 25.2 0.0 6.2 376.6 83.6
8/28/2018 31.3 24.0 27.2 0.0 6.2 376.6 83.2
8/27/2018 30.9 20.0 25.9 0.0 12.6 376.6 88.3
8/26/2018 28.9 19.5 24.1 0.0 12.6 376.6 93.8
8/25/2018 24.4 20.5 22.3 6.2 12.6 376.6 90.4
8/24/2018 25.2 13.2 20.2 0.0 7.4 370.4 80.1
8/23/2018 26.5 11.5 19.4 0.0 12.8 370.4 78.1
8/22/2018 22.3 13.7 18.7 0.0 33.8 370.4 83.1
8/21/2018 27.5 19.6 23.3 6.4 33.8 370.4 93.9
8/20/2018 25.8 16.0 21.1 0.0 27.4 364.0 92.0
8/19/2018 25.7 17.1 20.9 0.0 27.4 364.0 91.6
8/18/2018 27.4 19.4 22.6 1.0 27.4 364.0 92.8
8/17/2018 27.3 21.0 23.6 5.4 26.4 363.0 96.0
8/16/2018 24.0 21.0 22.5 21.0 21.0 357.6 99.5
8/15/2018 29.7 20.4 24.9 0.0 0.0 336.6 82.6
8/14/2018 30.0 16.8 23.6 0.0 0.0 336.6 79.0
8/13/2018 28.1 16.5 22.3 0.0 0.2 336.6 83.0
8/12/2018 27.6 16.5 21.5 0.0 24.4 336.6 85.9
8/11/2018 27.8 14.6 21.6 0.0 24.4 336.6 84.3
8/10/2018 27.3 18.3 22.4 0.0 24.4 336.6 86.1
8/9/2018 28.7 17.7 23.4 0.0 24.4 336.6 84.1
8/8/2018 27.9 19.2 23.6 0.0 24.4 336.6 90.5
8/7/2018 28.3 21.3 24.0 0.2 24.4 336.6 91.0
8/6/2018 31.0 20.5 25.0 24.2 72.0 336.4 89.4
8/5/2018 32.0 18.9 25.9 0.0 47.8 312.2 79.9
8/4/2018 29.1 16.9 23.3 0.0 47.8 312.2 82.5
8/3/2018 28.3 18.3 23.4 0.0 47.8 312.2 86.7
8/2/2018 26.7 16.4 22.3 0.0 56.8 312.2 86.2
8/1/2018 25.5 20.1 21.9 0.0 66.8 312.2 90.3
7/31/2018 25.5 15.6 21.1 47.8 66.8 312.2 91.7
7/30/2018 25.7 15.9 20.5 0.0 63.6 264.4 89.2
7/29/2018 27.2 15.1 21.1 0.0 63.6 264.4 79.8
7/28/2018 25.0 15.6 20.1 0.0 75.2 264.4 77.7
7/27/2018 25.9 13.7 20.4 9.0 79.6 264.4 80.8
7/26/2018 28.4 19.0 23.1 10.0 73.8 255.4 83.6
7/25/2018 29.5 19.4 24.2 0.0 63.8 245.4 81.4
7/24/2018 28.7 18.9 23.0 44.6 63.8 245.4 88.6
7/23/2018 28.5 15.0 21.8 0.0 19.2 200.8 89.1
7/22/2018 22.4 15.1 18.5 11.6 19.4 200.8 95.1
7/21/2018 25.1 19.9 22.2 4.4 7.8 189.2 90.6
7/20/2018 28.8 17.1 22.1 3.2 3.4 184.8 88.5
7/19/2018 27.9 13.5 21.2 0.0 0.2 181.6 69.5
7/18/2018 26.4 12.8 19.7 0.0 0.2 181.6 74.4
7/17/2018 28.5 16.4 23.2 0.0 0.2 181.6 66.6
7/16/2018 33.0 20.6 26.2 0.2 0.2 181.6 82.7
7/15/2018 32.8 20.1 26.6 0.0 0.0 181.4 75.5
7/14/2018 30.9 18.9 25.7 0.0 0.0 181.4 75.3
7/13/2018 31.3 15.9 24.3 0.0 0.0 181.4 65.4
7/12/2018 28.4 11.2 21.0 0.0 0.0 181.4 65.2
7/11/2018 29.1 12.7 21.1 0.0 0.0 181.4 64.4
7/10/2018 29.8 16.1 24.2 0.0 0.0 181.4 57.8
7/9/2018 31.9 12.7 23.8 0.0 0.0 181.4 68.8
7/8/2018 29.1 10.8 20.8 0.0 0.0 181.4 66.7
7/7/2018 26.0 9.8 18.9 0.0 0.0 181.4 59.8
7/6/2018 24.5 13.5 20.4 0.0 0.0 181.4 62.4
7/5/2018 33.9 23.4 28.0 0.0 0.0 181.4 80.7
7/4/2018 34.2 19.8 27.4 0.0 0.0 181.4 74.5
7/3/2018 31.6 18.6 25.6 0.0 3.6 181.4 73.9
7/2/2018 32.1 23.0 28.0 0.0 9.8 181.4 73.0
7/1/2018 33.6 22.3 28.8 0.0 9.8 181.4 71.6
6/30/2018 33.8 23.4 28.7 0.0 15.2 181.4 76.7
6/29/2018 31.6 18.4 26.1 0.0 15.6 181.4 76.5
6/28/2018 29.0 18.6 22.7 0.0 16.2 181.4 86.3
6/27/2018 25.5 19.7 21.8 3.6 16.2 181.4 95.5
6/26/2018 25.3 10.6 19.0 6.2 14.8 177.8 79.7
6/25/2018 23.5 12.1 17.5 0.0 15.2 171.6 81.3
6/24/2018 22.1 13.9 19.7 5.4 18.8 171.6 94.8
6/23/2018 26.4 18.2 21.4 0.4 13.4 166.2 91.3
6/22/2018 21.9 17.3 18.6 0.6 24.2 165.8 79.1
6/21/2018 24.7 11.7 19.4 0.0 23.6 165.2 78.3
6/20/2018 22.8 15.6 18.8 2.2 23.6 165.2 87.8
6/19/2018 24.6 16.9 20.8 6.6 21.4 163.0 85.7
6/18/2018 33.8 21.6 28.0 3.6 14.8 156.4 78.4
6/17/2018 32.2 16.6 25.3 0.0 11.2 152.8 79.2
6/16/2018 28.3 15.9 21.7 11.2 11.6 152.8 80.1
6/15/2018 27.4 10.8 19.8 0.0 0.4 141.6 59.8
6/14/2018 27.7 15.4 21.5 0.0 0.4 141.6 53.6
6/13/2018 29.4 17.0 23.8 0.0 0.4 141.6 71.7
6/12/2018 25.5 12.9 20.3 0.0 0.4 141.6 79.7
6/11/2018 25.0 15.4 20.1 0.0 0.6 141.6 56.6
6/10/2018 20.2 16.4 18.0 0.4 0.6 141.6 86.7
6/9/2018 20.0 14.8 18.2 0.0 3.0 141.2 78.8
6/8/2018 27.9 13.9 20.4 0.0 3.0 141.2 72.3
6/7/2018 26.4 14.1 19.8 0.0 3.0 141.2 72.4
6/6/2018 20.3 9.5 14.6 0.0 3.0 141.2 71.9
6/5/2018 18.8 9.0 15.2 0.2 3.0 141.2 76.2
6/4/2018 21.8 15.6 18.0 0.0 2.8 141.0 65.1
6/3/2018 21.8 11.7 17.9 2.8 3.2 141.0 88.1
6/2/2018 22.2 11.3 16.0 0.0 0.4 138.2 84.9
6/1/2018 27.5 12.7 21.9 0.0 0.4 138.2 84.1
5/31/2018 31.9 21.6 25.9 0.0 0.4 138.2 75.3
5/30/2018 29.5 19.4 24.7 0.0 0.4 138.2 73.8
5/29/2018 30.5 18.3 24.8 0.0 0.4 138.2 69.5
5/28/2018 32.7 17.4 25.8 0.4 4.4 138.2 71.1
5/27/2018 28.6 15.2 22.3 0.0 9.2 137.8 86.7
5/26/2018 26.3 15.9 21.4 0.0 9.8 137.8 76.8
5/25/2018 29.2 13.2 22.3 0.0 11.8 137.8 56.4
5/24/2018 27.6 10.6 19.9 0.0 11.8 137.8 67.3
5/23/2018 25.6 10.1 17.1 0.0 11.8 137.8 78.7
5/22/2018 22.9 12.3 16.4 4.0 11.8 137.8 94.3
5/21/2018 19.4 6.0 12.8 5.2 22.8 133.8 80.2
5/20/2018 19.2 8.5 13.5 0.6 17.8 128.6 93.4
5/19/2018 25.0 13.5 18.2 2.0 24.0 128.0 88.2
5/18/2018 21.3 10.4 15.8 0.0 90.4 126.0 62.5
5/17/2018 22.9 10.0 15.5 0.0 102.4 126.0 81.6
5/16/2018 23.0 7.5 15.4 0.0 102.4 126.0 86.2
5/15/2018 22.3 10.1 17.3 15.0 106.4 126.0 91.3
5/14/2018 21.4 10.1 14.9 0.2 91.4 111.0 98.2
5/13/2018 17.6 6.5 11.7 6.8 91.2 110.8 88.4
5/12/2018 11.2 6.3 8.0 68.4 84.4 104.0 96.5
5/11/2018 8.0 4.0 6.3 12.0 16.0 35.6 82.6
5/10/2018 21.2 7.7 17.5 0.0 6.2 23.6 76.2
5/9/2018 25.7 8.0 17.6 4.0 18.6 23.6 68.6
5/8/2018 20.6 4.2 13.8 0.0 19.6 19.6 63.8
5/7/2018 18.1 4.6 12.1 0.0 19.6 19.6 71.8
5/6/2018 22.6 9.2 14.9 0.0 19.6 19.6 75.3
5/5/2018 23.8 10.1 16.9 0.0 19.6 19.6 69.9
5/4/2018 24.3 11.8 17.6 2.2 20.2 19.6 82.0
5/3/2018 23.2 11.2 16.8 12.4 19.8 17.4 97.3
5/2/2018 28.2 13.4 20.9 5.0 7.4 5.0 57.0
5/1/2018 26.6 6.6 17.3 0.0 6.2 0.0 49.3